Location: East Guldeford
(50.9500°N, 0.7500°E)
Time: 08:01:51
(UTC+00:00)

Cosmos 1908 Rocket - Pass Details

Date: 12 May 2021
Orbit: 606 x 632 km, 82.5° (Epoch: 16 June)

Event Time Altitude Azimuth Distance (km) Brightness Sun altitude
Rises 23:29:20 0° 346° (NNW) 2,941 8.6 -20.5°
Reaches altitude 10° 23:31:38 10° 341° (NNW) 2,028 7.3 -20.5°
Maximum altitude 23:36:00 53° 266° (W) 781 4.0 -20.6°
Enters shadow 23:37:01 43° 221° (SW) 891 4.0 -20.6°
